Skip Page Navigation
NASA JPL Caltech
NASA Logo - Jet Propulsion Laboratory + View the NASA Portal
+ Center for Near-Earth Object Studies
JPL Home Earth Solar System Stars & Galaxies Technology
JPL Solar System Dynamics
BODIES ORBITS EPHEMERIDES TOOLS PHYSICAL DATA DISCOVERY FAQ SITE MAP
IMPORTANT: The SSD Announcement email list is now available. Major changes are coming in the near future, including possible hostname and/or URL changes. To be notified of such changes, subscribe to this email list.

Please visit this page for more details.


JPL Small-Body Database Browser
Search: [ help ]  
(2016 FX = 2013 TT127)
Classification: Main-belt Asteroid          SPK-ID: 3651083
Ephemeris | Orbit Diagram | Orbital Elements | Mission Design | Physical Parameters ]

[ hide orbit diagram ]

For accurate long-term ephemerides, please instead use our Horizons system.This orbit viewer was implemented using two-body methods, and hence should not be used for determining accurate long-term trajectories (over several years or decades) or planetary encounter circumstances.


[ revert to old Java-based viewer ]

Orbital Elements at Epoch 2459000.5 (2020-May-31.0) TDB
Reference: JPL 19 (heliocentric ecliptic J2000)
 Element Value Uncertainty (1-sigma)   Units 
e .099161429320077 1.0217e-07  
a 2.676265137609967 3.2393e-08 au
q 2.41088286132507 2.7726e-07 au
i 13.75135383882356 1.1471e-05 deg
node 17.3680926024397 2.3212e-05 deg
peri 321.7845959923376 4.0725e-05 deg
M 229.8154646093977 3.2019e-05 deg
tp 2459578.794455932667
(2021-Dec-30.29445593)
0.00014376 TDB
period 1599.160787501557
4.38
2.9034e-05
7.949e-08
d
yr
n .2251180761894772 4.0872e-09 deg/d
Q 2.941647413894864 3.5606e-08 au
  Orbit Determination Parameters
   # obs. used (total)      107  
   data-arc span      8983 days (24.59 yr)  
   first obs. used      1995-09-21  
   last obs. used      2020-04-25  
   planetary ephem.      DE431  
   SB-pert. ephem.      SB431-N16  
   condition code      0  
   norm. resid. RMS      .61549  
   source      ORB  
   producer      Otto Matic  
   solution date      2020-May-19 23:09:07  

Additional Information
 Earth MOID = 1.41903 au 
 Jupiter MOID = 2.48187 au 
 T_jup = 3.331 
[ show covariance matrix ]

Ephemeris | Orbit Diagram | Orbital Elements | Mission Design | Physical Parameters ]

Physical Parameter Table
Parameter Symbol Value Units Sigma Reference Notes
absolute magnitude H 16.9   n/a MPO428351  

Alternate Designations
 2016 FX = 1995 SW1 = 2013 TT127 
Ephemeris | Orbit Diagram | Orbital Elements | Mission Design | Physical Parameters ]
ABOUT SSD CREDITS/AWARDS PRIVACY/COPYRIGHT GLOSSARY LINKS
FirstGov 2020-May-28 06:54 UT
(server date/time)  
NASA Home Page
Site Manager:   Ryan S. Park
Webmaster  Alan B. Chamberlin